Location: Leuk
(46.3174°N, 7.6341°E)
Time: 13:17:08
(UTC+00:00)

MOS 1 Rocket - Pass Details

Date: 20 June 2021
Orbit: 615 x 829 km, 97.4° (Epoch: 26 July)

Event Time Altitude Azimuth Distance (km) Brightness Sun altitude
Rises 02:10:42 0° 107° (ESE) 2,883 6.8 -11.4°
Reaches altitude 10° 02:14:53 10° 66° (ENE) 2,000 6.7 -11.0°
Maximum altitude 02:15:35 10° 57° (ENE) 1,982 6.9 -10.9°
Drops below altitude 10° 02:16:17 10° 48° (NE) 2,011 7.2 -10.9°
Sets 02:20:35 0° 8° (N) 2,965 7.7 -10.4°
